Home > Weather > Porto Acre > Past weeks

Flag for Brazil Past Weather in Porto Acre, Acre, Brazil — Yesterday and Last 2 Weeks

Now
90 °F

Partly sunny.


Feels Like: 92 °F
Forecast: 68 / 93 °F
Wind: 7 mph from Northeast

Location: Rio Branco Airport

Current Time: Jul 1, 2016 at 2:08:29 PM

Latest Report: Jul 1, 2016 at 1:00 PM


Visibility: N/A

Pressure: 29.98 "Hg

Humidity: 46%

Dew Point: 66 °F

Location of Porto AcreLocation

Past Weather in Porto Acre — Graph

°F

Porto Acre Temperature Yesterday

Maximum temperature yesterday: 90 °F (at 2:00 PM)
Minimum temperature yesterday: 64 °F (at 4:00 AM)
Average temperature yesterday: 76 °F

High & Low Weather Summary for the Past Weeks

 TemperatureHumidityPressure
High91 °F (Jun 26, 1:00 PM)100% (Jun 16, 11:00 PM)30.12 "Hg (Jun 16, 11:00 PM)
Low63 °F (Jun 22, 5:00 AM)43% (Jun 23, 2:00 PM)29.89 "Hg (Jun 24, 3:00 PM)
Average75 °F77%30.00 "Hg
* Reported Jun 16 1:00 PM — Jul 1 1:00 PM, Porto Acre, Weather by CustomWeather, © 2016

Note: Actual official high and low records may vary slightly from our data, if they occured in-between our weather recording intervals... More about our weather records

Advertising

Porto Acre Weather History for the Previous 24 Hours

Scroll right to see more
 ConditionsComfort  
Time TempWeatherWind HumidityBarometerVisibility
1:00 PM
Fri, Jul 1
90 °FPartly sunny.7 mph46%29.98 "HgN/A
12:00 PM90 °FScattered clouds.5 mph43%30.01 "HgN/A
11:00 AM88 °FScattered clouds.6 mph52%30.01 "HgN/A
10:00 AM86 °FSunny.6 mph59%30.04 "Hg10 mi
9:00 AM81 °FSunny.5 mph70%30.04 "Hg10 mi
8:00 AM75 °FSunny.5 mph83%30.04 "Hg10 mi
7:00 AM72 °FSunny.No wind88%30.01 "Hg10 mi
6:00 AM64 °FSunny.2 mph100%29.98 "Hg10 mi
5:00 AM66 °FClear.No wind94%29.98 "Hg10 mi
4:00 AM66 °FClear.No wind100%29.95 "Hg10 mi
3:00 AM68 °FClear.No wind94%29.95 "Hg10 mi
2:00 AM66 °FClear.No wind100%29.95 "Hg10 mi
1:00 AM66 °FClear.No wind100%29.98 "Hg10 mi
12:00 AM68 °FClear.No wind94%29.98 "Hg10 mi
11:00 PM
Thu, Jun 30
70 °FClear.No wind94%29.98 "Hg10 mi
10:00 PM70 °FClear.2 mph94%29.98 "Hg10 mi
9:00 PM70 °FClear.No wind94%29.98 "Hg10 mi
8:00 PM75 °FClear.2 mph74%29.95 "Hg10 mi
7:00 PM73 °FClear.No wind83%29.95 "Hg10 mi
6:00 PM77 °FPassing clouds.2 mph74%29.92 "HgN/A
5:00 PM84 °FPassing clouds.No wind58%29.92 "HgN/A
4:00 PM86 °FWarm.N/A49%29.92 "HgN/A
3:00 PM90 °FScattered clouds.5 mph43%29.92 "HgN/A
2:00 PM90 °FScattered clouds.7 mph43%29.92 "HgN/A
Weather by CustomWeather, © 2016

See weather overviewHow to use our weather pages